User: anonymous   Login
Location: Aufkirchen
(47.9603°N, 11.3653°E)
Time: 23:13:04
(UTC+01:00)
Language:

Courier 1B - Orbit

View from above orbital plane
View from above orbital plane
View from above satellite
View from above satellite

Ground track
Ground track

The orbit data is extracted from the following two-line orbital elements,

1    58U 60013A   20330.47826746 +.00000099 +00000-0 +21497-4 0  9990
2    58 028.3299 357.7094 0164996 322.4449 036.4671 13.46324154960337
Epoch (UTC): 25 November 2020 11:28:42
Eccentricity: 0.0164996
inclination: 28.3299°
perigee height: 962 km
apogee height: 1209 km
right ascension of ascending node: 357.7094°
argument of perigee: 322.4449°
revolutions per day: 13.46324154
mean anomaly at epoch: 36.4671°
orbit number at epoch: 96033

The dashed part of the orbit path shows where the satellite is in the earth's shadow,  

DLR